This is the latest recevied weather packets stored in our database for station/object EA1IOK-1. If no packets are shown the sender has not sent any weather packets the latest 10 day(s).
| Time | Temp. | Humidity | Pressure | Rain* | Wind** | Luminosity | Snow |
|---|---|---|---|---|---|---|---|
| 1778086665 | 18.89° C | 81% | 1010.4 hPa | - | - | - | - |
| 1778085758 | 17.78° C | 87% | 1010.4 hPa | - | - | - | - |
| 1778084858 | 22.78° C | 48% | 1010.3 hPa | - | - | - | - |
| 1778083962 | 24.44° C | 43% | 1010.2 hPa | - | - | - | - |
| 1778083062 | 21.11° C | 54% | 1010.4 hPa | - | - | - | - |
| 1778082158 | 23.89° C | 45% | 1010.5 hPa | - | - | - | - |
| 1778081301 | 23.33° C | 40% | 1010.7 hPa | - | - | - | - |
| 1778081255 | 23.33° C | 40% | 1010.7 hPa | - | - | - | - |
| 1778080358 | 22.78° C | 49% | 1010.8 hPa | - | - | - | - |
| 1778079454 | 23.89° C | 47% | 1011 hPa | - | - | - | - |
| 1778078557 | 22.78° C | 44% | 1011.3 hPa | - | - | - | - |
| 1778077656 | 20.56° C | 59% | 1011.6 hPa | - | - | - | - |
| 1778076752 | 22.22° C | 55% | 1011.7 hPa | - | - | - | - |
| 1778075854 | 23.33° C | 53% | 1011.9 hPa | - | - | - | - |
| 1778074959 | 23.89° C | 59% | 1012.1 hPa | - | - | - | - |
| 1778074049 | 18.89° C | 76% | 1012.3 hPa | - | - | - | - |
| 1778073149 | 19.44° C | 72% | 1012.4 hPa | - | - | - | - |
| 1778072253 | 20° C | 69% | 1012.4 hPa | - | - | - | - |
| 1778071360 | 20° C | 69% | 1012.6 hPa | - | - | - | - |
| 1778070451 | 22.22° C | 73% | 1012.8 hPa | - | - | - | - |
| 1778069546 | 18.33° C | 78% | 1013.1 hPa | - | - | - | - |
| 1778068650 | 19.44° C | 85% | 1013.3 hPa | - | - | - | - |
| 1778067749 | 19.44° C | 88% | 1013.3 hPa | - | - | - | - |
| 1778066849 | 22.22° C | 70% | 1013.6 hPa | - | - | - | - |
| 1778065953 | 18.89° C | 100% | 1013.9 hPa | - | - | - | - |
* Rain since midnight (hover to see other rain measurements)
** Current wind speed in m/s (hover to see current wind gust speed)